Time,TemperatureF,DewpointF,PressureIn,WindDirection,WindDirectionDegrees,WindSpeedMPH,WindSpeedGustMPH,Humidity,HourlyPrecipIn,Conditions,Clouds,dailyrainin,SoftwareType,DateUTC
2013-07-04 00:00:00,64.8,50.6,29.73,North,0,1.8,1.8,60,0.00,,,0.00,WUHU216HW,2013-07-04 07:00:00,
2013-07-04 00:05:00,64.8,50.6,29.73,North,0,1.8,1.8,60,0.00,,,0.00,WUHU216HW,2013-07-04 07:05:00,
2013-07-04 00:59:00,63.5,49.9,29.72,NNE,23,1.8,1.8,61,0.00,,,0.00,WUHU216HW,2013-07-04 07:59:00,
2013-07-04 01:00:00,63.5,49.9,29.72,NNE,23,1.8,1.8,61,0.00,,,0.00,WUHU216HW,2013-07-04 08:00:00,
2013-07-04 01:05:00,63.5,49.9,29.72,NNE,23,1.8,1.8,61,0.00,,,0.00,WUHU216HW,2013-07-04 08:05:00,
2013-07-04 01:59:00,63.7,50.1,29.72,North,0,2.5,2.5,61,0.00,,,0.00,WUHU216HW,2013-07-04 08:59:00,
2013-07-04 02:00:00,63.7,50.1,29.72,North,0,2.5,2.5,61,0.00,,,0.00,WUHU216HW,2013-07-04 09:00:00,
2013-07-04 02:05:00,63.7,50.1,29.72,North,0,2.5,2.5,61,0.00,,,0.00,WUHU216HW,2013-07-04 09:05:00,
2013-07-04 02:59:00,63.7,49.6,29.73,North,0,1.1,1.1,60,0.00,,,0.00,WUHU216HW,2013-07-04 09:59:00,
2013-07-04 03:00:00,63.7,49.6,29.73,North,0,1.1,1.1,60,0.00,,,0.00,WUHU216HW,2013-07-04 10:00:00,
2013-07-04 03:05:00,63.7,49.6,29.73,North,0,1.1,1.1,60,0.00,,,0.00,WUHU216HW,2013-07-04 10:05:00,
2013-07-04 03:06:00,63.7,49.6,29.73,North,0,1.1,1.1,60,0.00,,,0.00,WUHU216HW,2013-07-04 10:06:00,
2013-07-04 03:59:00,62.6,49.9,29.73,NE,45,1.1,1.1,63,0.00,,,0.00,WUHU216HW,2013-07-04 10:59:00,
2013-07-04 04:00:00,62.6,49.9,29.73,NE,45,1.1,1.1,63,0.00,,,0.00,WUHU216HW,2013-07-04 11:00:00,
2013-07-04 04:05:00,62.6,49.9,29.73,NE,45,1.1,1.1,63,0.00,,,0.00,WUHU216HW,2013-07-04 11:05:00,
2013-07-04 04:59:00,61.2,50.6,29.74,NNE,23,1.8,1.8,68,0.00,,,0.00,WUHU216HW,2013-07-04 11:59:00,
2013-07-04 05:00:00,61.2,50.6,29.74,NNE,23,1.8,1.8,68,0.00,,,0.00,WUHU216HW,2013-07-04 12:00:00,
2013-07-04 05:05:00,61.2,50.6,29.74,NNE,23,1.8,1.8,68,0.00,,,0.00,WUHU216HW,2013-07-04 12:05:00,
2013-07-04 05:59:00,60.1,50.8,29.74,North,0,0.0,0.0,71,0.00,,,0.00,WUHU216HW,2013-07-04 12:59:00,
2013-07-04 06:00:00,60.1,50.8,29.74,North,0,0.0,0.0,71,0.00,,,0.00,WUHU216HW,2013-07-04 13:00:00,
2013-07-04 06:05:00,60.1,50.8,29.74,North,0,0.0,0.0,71,0.00,,,0.00,WUHU216HW,2013-07-04 13:05:00,
2013-07-04 06:59:00,60.5,51.8,29.75,SSE,158,2.5,2.5,73,0.00,,,0.00,WUHU216HW,2013-07-04 13:59:00,
2013-07-04 07:00:00,60.5,51.8,29.75,SSE,158,2.5,2.5,73,0.00,,,0.00,WUHU216HW,2013-07-04 14:00:00,
2013-07-04 07:05:00,60.5,51.8,29.75,SSE,158,2.5,2.5,73,0.00,,,0.00,WUHU216HW,2013-07-04 14:05:00,
2013-07-04 07:59:00,60.8,52.6,29.76,SSE,158,0.9,0.9,74,0.00,,,0.00,WUHU216HW,2013-07-04 14:59:00,
2013-07-04 08:00:00,60.8,52.6,29.76,SSE,158,0.9,0.9,74,0.00,,,0.00,WUHU216HW,2013-07-04 15:00:00,
2013-07-04 08:05:00,60.8,52.6,29.76,SSE,158,0.9,0.9,74,0.00,,,0.00,WUHU216HW,2013-07-04 15:05:00,
2013-07-04 08:59:00,61.0,53.5,29.76,SSE,158,1.1,1.1,76,0.00,,,0.00,WUHU216HW,2013-07-04 15:59:00,
2013-07-04 09:00:00,61.0,53.5,29.76,SSE,158,1.1,1.1,76,0.00,,,0.00,WUHU216HW,2013-07-04 16:00:00,
2013-07-04 09:05:00,61.0,53.5,29.76,SSE,158,1.1,1.1,76,0.00,,,0.00,WUHU216HW,2013-07-04 16:05:00,
2013-07-04 09:59:00,62.6,53.8,29.76,South,180,1.3,1.3,73,0.00,,,0.00,WUHU216HW,2013-07-04 16:59:00,
2013-07-04 10:00:00,62.6,53.8,29.76,South,180,1.3,1.3,73,0.00,,,0.00,WUHU216HW,2013-07-04 17:00:00,
2013-07-04 10:05:00,62.6,53.8,29.76,South,180,1.3,1.3,73,0.00,,,0.00,WUHU216HW,2013-07-04 17:05:00,
2013-07-04 10:59:00,64.8,54.0,29.76,WSW,248,2.7,2.7,68,0.00,,,0.00,WUHU216HW,2013-07-04 17:59:00,
2013-07-04 11:00:00,64.8,54.0,29.76,WSW,248,2.7,2.7,68,0.00,,,0.00,WUHU216HW,2013-07-04 18:00:00,
2013-07-04 11:05:00,64.8,54.0,29.76,WSW,248,2.7,2.7,68,0.00,,,0.00,WUHU216HW,2013-07-04 18:05:00,
2013-07-04 12:00:00,66.6,54.0,29.76,West,270,1.8,1.8,64,0.00,,,0.00,WUHU216HW,2013-07-04 19:00:00,
2013-07-04 12:05:00,66.4,53.5,29.76,SSE,158,2.9,2.9,63,0.00,,,0.00,WUHU216HW,2013-07-04 19:05:00,
2013-07-04 12:10:00,66.2,53.6,29.76,South,180,0.4,4.3,64,0.00,,,0.00,WUHU216HW,2013-07-04 19:10:00,
2013-07-04 12:15:00,66.2,53.3,29.76,SSE,160,3.1,4.3,63,0.00,,,0.00,WUHU216HW,2013-07-04 19:15:00,
2013-07-04 12:20:00,66.2,53.6,29.76,SSW,203,2.5,4.0,64,0.00,,,0.00,WUHU216HW,2013-07-04 19:20:00,
2013-07-04 12:25:00,66.4,53.5,29.76,SSE,168,2.0,3.4,63,0.00,,,0.00,WUHU216HW,2013-07-04 19:25:00,
2013-07-04 12:30:00,66.6,53.7,29.76,SE,144,1.7,3.4,63,0.00,,,0.00,WUHU216HW,2013-07-04 19:30:00,
2013-07-04 12:35:00,66.6,53.7,29.76,SSW,199,1.9,5.1,63,0.00,,,0.00,WUHU216HW,2013-07-04 19:35:00,
2013-07-04 12:40:00,66.6,53.7,29.76,SSW,210,1.4,5.1,63,0.00,,,0.00,WUHU216HW,2013-07-04 19:40:00,
2013-07-04 12:45:00,67.1,54.1,29.76,WSW,248,1.6,3.4,63,0.00,,,0.00,WUHU216HW,2013-07-04 19:45:00,
2013-07-04 12:50:00,67.3,53.8,29.76,WSW,248,3.1,3.4,62,0.00,,,0.00,WUHU216HW,2013-07-04 19:50:00,
2013-07-04 12:55:00,67.9,54.4,29.76,SSW,203,3.6,4.7,62,0.00,,,0.00,WUHU216HW,2013-07-04 19:55:00,
2013-07-04 13:00:00,68.0,54.6,29.76,SE,135,3.1,4.7,62,0.00,,,0.00,WUHU216HW,2013-07-04 20:00:00,
2013-07-04 13:05:00,68.0,54.1,29.76,SSE,158,0.8,3.6,61,0.00,,,0.00,WUHU216HW,2013-07-04 20:05:00,
2013-07-04 13:10:00,67.9,53.9,29.76,South,191,2.2,3.1,61,0.00,,,0.00,WUHU216HW,2013-07-04 20:10:00,
2013-07-04 13:12:00,67.7,53.7,29.76,SE,135,1.6,1.6,61,0.00,,,0.00,WUHU216HW,2013-07-04 20:12:00,
2013-07-04 13:15:00,67.7,53.7,29.76,SE,135,1.6,3.1,61,0.00,,,0.00,WUHU216HW,2013-07-04 20:15:00,
2013-07-04 13:20:00,67.7,53.7,29.76,SE,135,1.6,1.8,61,0.00,,,0.00,WUHU216HW,2013-07-04 20:20:00,
2013-07-04 14:00:00,69.8,53.9,29.76,SE,135,0.4,0.4,57,0.00,,,0.00,WUHU216HW,2013-07-04 21:00:00,
2013-07-04 14:05:00,69.8,53.9,29.76,SE,135,0.4,0.4,57,0.00,,,0.00,WUHU216HW,2013-07-04 21:05:00,
2013-07-04 15:00:00,73.3,54.5,29.74,SSE,158,3.6,3.6,52,0.00,,,0.00,WUHU216HW,2013-07-04 22:00:00,
2013-07-04 15:05:00,73.3,54.5,29.74,SSE,158,3.6,3.6,52,0.00,,,0.00,WUHU216HW,2013-07-04 22:05:00,
2013-07-04 16:00:00,75.2,54.2,29.73,SSW,203,2.7,2.7,48,0.00,,,0.00,WUHU216HW,2013-07-04 23:00:00,
2013-07-04 16:02:00,74.7,54.3,29.73,SE,135,0.7,1.1,49,0.00,,,0.00,WUHU216HW,2013-07-04 23:02:00,
2013-07-04 16:05:00,74.7,54.3,29.73,SE,135,0.7,2.7,49,0.00,,,0.00,WUHU216HW,2013-07-04 23:05:00,
2013-07-04 16:10:00,74.7,54.3,29.73,SE,135,0.7,2.7,49,0.00,,,0.00,WUHU216HW,2013-07-04 23:10:00,
2013-07-04 17:00:00,76.5,54.1,29.71,WSW,248,2.9,2.9,46,0.00,,,0.00,WUHU216HW,2013-07-05 00:00:00,
2013-07-04 17:05:00,75.1,53.5,29.71,SSE,158,2.2,3.4,47,0.00,,,0.00,WUHU216HW,2013-07-05 00:05:00,
2013-07-04 17:10:00,74.5,53.6,29.70,SSE,158,2.5,3.4,48,0.00,,,0.00,WUHU216HW,2013-07-05 00:10:00,
2013-07-04 17:15:00,74.5,53.6,29.70,SSW,203,3.6,3.6,48,0.00,,,0.00,WUHU216HW,2013-07-05 00:15:00,
2013-07-04 17:19:00,73.1,52.8,29.70,South,180,1.8,1.8,49,0.00,,,0.00,WUHU216HW,2013-07-05 00:19:00,
2013-07-04 17:20:00,73.1,52.8,29.70,South,180,1.8,3.6,49,0.00,,,0.00,WUHU216HW,2013-07-05 00:20:00,
2013-07-04 17:25:00,73.1,52.8,29.70,South,180,1.8,3.6,49,0.00,,,0.00,WUHU216HW,2013-07-05 00:25:00,
2013-07-04 18:00:00,77.4,56.2,29.69,South,180,1.1,1.1,48,0.00,,,0.00,WUHU216HW,2013-07-05 01:00:00,
2013-07-04 18:05:00,78.7,55.4,29.69,ESE,121,0.6,2.2,45,0.00,,,0.00,WUHU216HW,2013-07-05 01:05:00,
2013-07-04 18:10:00,78.5,55.3,29.69,SE,135,2.0,2.2,45,0.00,,,0.00,WUHU216HW,2013-07-05 01:10:00,
2013-07-04 18:15:00,78.5,55.3,29.69,SE,135,2.0,2.0,45,0.00,,,0.00,WUHU216HW,2013-07-05 01:15:00,
2013-07-04 19:00:00,71.3,52.8,29.68,SW,225,0.0,0.0,52,0.00,,,0.00,WUHU216HW,2013-07-05 02:00:00,
2013-07-04 19:05:00,71.3,52.8,29.68,SW,225,0.0,0.0,52,0.00,,,0.00,WUHU216HW,2013-07-05 02:05:00,
2013-07-04 20:00:00,70.4,53.4,29.67,WSW,248,0.0,0.0,55,0.00,,,0.00,WUHU216HW,2013-07-05 03:00:00,
2013-07-04 20:05:00,70.4,53.4,29.67,WSW,248,0.0,0.0,55,0.00,,,0.00,WUHU216HW,2013-07-05 03:05:00,
2013-07-04 21:00:00,68.9,53.0,29.67,West,270,0.0,0.0,57,0.00,,,0.00,WUHU216HW,2013-07-05 04:00:00,
2013-07-04 21:01:00,68.9,53.0,29.67,West,270,0.0,0.0,57,0.00,,,0.00,WUHU216HW,2013-07-05 04:01:00,
2013-07-04 21:06:00,68.8,53.4,29.67,East,90,0.4,0.4,58,0.00,,,0.00,WUHU216HW,2013-07-05 04:06:00,
2013-07-04 21:11:00,68.8,53.4,29.67,WSW,248,2.5,2.5,58,0.00,,,0.00,WUHU216HW,2013-07-05 04:11:00,
2013-07-04 21:16:00,68.6,53.2,29.67,WNW,293,0.0,2.5,58,0.00,,,0.00,WUHU216HW,2013-07-05 04:16:00,
2013-07-04 21:21:00,68.4,53.0,29.67,West,266,0.4,2.5,58,0.00,,,0.00,WUHU216HW,2013-07-05 04:21:00,
2013-07-04 21:26:00,68.2,52.8,29.67,SSW,203,1.6,1.8,58,0.00,,,0.00,WUHU216HW,2013-07-05 04:26:00,
2013-07-04 21:31:00,68.0,53.2,29.67,SW,225,1.1,2.0,59,0.00,,,0.00,WUHU216HW,2013-07-05 04:31:00,
2013-07-04 21:36:00,67.9,53.0,29.68,SSW,194,0.8,2.0,59,0.00,,,0.00,WUHU216HW,2013-07-05 04:36:00,
2013-07-04 21:41:00,67.9,53.0,29.68,SSE,158,0.2,1.8,59,0.00,,,0.00,WUHU216HW,2013-07-05 04:41:00,
2013-07-04 21:46:00,67.7,52.8,29.67,ESE,123,0.9,1.8,59,0.00,,,0.00,WUHU216HW,2013-07-05 04:46:00,
2013-07-04 21:48:00,67.7,52.8,29.67,WSW,248,0.4,0.4,59,0.00,,,0.00,WUHU216HW,2013-07-05 04:48:00,
2013-07-04 21:51:00,67.7,52.8,29.67,WSW,248,0.4,1.8,59,0.00,,,0.00,WUHU216HW,2013-07-05 04:51:00,
2013-07-04 21:56:00,67.7,52.8,29.67,WSW,248,0.4,0.4,59,0.00,,,0.00,WUHU216HW,2013-07-05 04:56:00,
2013-07-04 22:00:00,67.5,53.2,29.67,West,270,1.8,1.8,60,0.00,,,0.00,WUHU216HW,2013-07-05 05:00:00,
2013-07-04 22:01:00,67.5,53.2,29.67,West,270,1.8,1.8,60,0.00,,,0.00,WUHU216HW,2013-07-05 05:01:00,
2013-07-04 22:06:00,67.5,53.2,29.67,West,270,1.8,1.8,60,0.00,,,0.00,WUHU216HW,2013-07-05 05:06:00,
2013-07-04 23:00:00,65.3,53.3,29.67,SW,225,0.0,0.0,65,0.00,,,0.00,WUHU216HW,2013-07-05 06:00:00,
2013-07-04 23:05:00,65.3,53.3,29.67,SW,225,0.0,0.0,65,0.00,,,0.00,WUHU216HW,2013-07-05 06:05:00,